[[{"header":{"parameterUnit":"m.s-1","parameterCategory":1,"la1":30.2991,"la2":30.254,"lo1":-89.0895,"lo2":-89.0444,"dy":0.0017,"dx":0.0017,"nx":28,"ny":28,"refTime":"2025-05-21T03:00:00:Z","depth":0,"parameterNumber":2,"parameterNumberName":"U-component_of_WINDS"},"data":[0,0,0,0,0,0,0,0,0,0,0,0,0,0,0,0,0,0,0,0,0,0,0,0,0,0,0,0,0,0,0,0,0,0,0,0,0,0,0,0,0,0,0,0,0,0,0,0,0,0,0,0,0,0,0,0,0,0,1.0275,1.0275,0,1.0316,1.0316,1.0317,1.0323,1.0323,1.0322,1.0322,1.0365,1.0366,1.0368,0,0,0,0,0,0,0,0,0,0,0,0,0,1.0201,1.0202,1.0275,1.0275,1.0276,1.0316,1.0316,1.0317,1.0323,1.0323,1.0322,1.0322,1.0364,1.0366,1.0368,0,0,0,0,0,0,0,0,0,0,0,0,0,1.0236,1.0202,1.0274,1.0284,1.0285,1.0316,1.0316,1.0317,1.0323,1.0323,1.0322,1.0322,1.0364,1.0366,1.0368,1.0393,0,0,1.0375,1.0376,0,0,0,0,0,0,0,0,1.0234,1.0239,1.0282,1.0283,1.0284,1.0314,1.0306,1.0342,1.0323,1.0309,1.0322,1.0321,1.0348,1.0352,1.0361,1.0395,1.0396,1.0375,1.0376,1.0377,1.0378,0,0,0,0,0,0,0,1.0232,1.0237,1.0291,1.0282,1.0284,1.0285,1.029,1.0313,1.0331,1.031,1.031,1.0315,1.0349,1.0358,1.0362,1.0397,1.0375,1.0377,1.0378,1.0379,1.0451,1.0452,0,0,0,0,0,0,1.0228,1.0235,1.029,1.0292,1.0258,1.0287,1.0292,1.0305,1.0331,1.0334,1.0316,1.0315,1.0355,1.0359,1.0363,1.0392,1.0377,1.0379,1.038,1.0451,1.0452,1.0452,0,0,0,0,0,0,1.0226,1.0233,1.0288,1.0264,1.0271,1.0289,1.0303,1.0306,1.0316,1.0335,1.0338,1.0322,1.0355,1.036,1.0385,1.0394,1.038,1.0382,1.045,1.0451,1.0452,1.0452,0,0,0,0,0,0,1.0224,1.0232,1.0242,1.0264,1.0272,1.0309,1.0304,1.0307,1.0319,1.0319,1.0342,1.0345,1.0355,1.0381,1.0387,1.0397,1.0384,1.0449,1.0451,1.0452,1.0451,1.0453,1.0454,0,0,0,0,0,1.0221,1.0241,1.0242,1.0249,1.0285,1.031,1.0314,1.0324,1.032,1.033,1.0342,1.0345,1.0392,1.0384,1.039,1.0401,1.0449,1.045,1.0452,1.0451,1.0452,1.0454,0,0,0,0,0,0,1.0219,1.0244,1.0246,1.0273,1.0289,1.0311,1.0323,1.0326,1.0344,1.0344,1.0356,1.0361,1.0384,1.0395,1.0386,1.0425,1.042,1.0423,1.0417,1.0419,1.0421,1.0417,1.0386,0,0,0,0,0,1.0222,1.024,1.026,1.0282,1.029,1.0305,1.0316,1.0323,1.034,1.0347,1.0361,1.0378,1.0396,1.0409,1.0427,1.0453,1.0457,1.0463,1.0465,1.0466,1.0468,1.0481,1.0483,1.0457,1.0457,1.0457,0,0,1.0228,1.0243,1.0254,1.0282,1.0295,1.0313,1.0311,1.0331,1.0344,1.035,1.0374,1.0385,1.0404,1.0429,1.0441,1.0439,1.0476,1.0468,1.0468,1.047,1.0483,1.0485,1.0487,1.0458,1.0457,1.0457,0,0,1.0247,1.0261,1.028,1.0293,1.0313,1.0323,1.0327,1.0348,1.0356,1.038,1.0384,1.04,1.0432,1.0446,1.0456,1.0479,1.0482,1.0485,1.0492,1.0505,1.0507,1.0509,1.0516,1.0519,1.0487,1.0487,1.0487,0,1.0251,1.0279,1.0289,1.0308,1.032,1.0326,1.0345,1.0357,1.0382,1.039,1.0387,1.0427,1.0441,1.0468,1.0473,1.0482,1.0487,1.0482,1.0506,1.0508,1.051,1.0517,1.052,1.0487,1.0487,1.0487,1.0487,0,1.0283,1.0302,1.0315,1.0338,1.0352,1.037,1.0383,1.0395,1.04,1.041,1.0434,1.045,1.0471,1.0478,1.0484,1.0506,1.0504,1.0504,1.0499,1.0513,1.0519,1.0522,1.0488,1.0487,1.0487,1.0487,0,0,1.0302,1.033,1.0335,1.0345,1.0367,1.0382,1.0401,1.0421,1.043,1.0447,1.0463,1.0489,1.0488,1.0501,1.0507,1.0519,1.0534,1.0517,1.0517,1.0519,1.0559,1.0558,1.0561,1.0536,1.0537,1.0537,1.0557,0,1.0323,1.0357,1.0366,1.0395,1.0412,1.0417,1.0433,1.0448,1.0458,1.0473,1.0484,1.0502,1.05,1.0507,1.0518,1.053,1.0542,1.0529,1.055,1.0551,1.0544,1.0565,1.0565,1.0583,1.056,1.056,1.056,0,1.0353,1.0369,1.0399,1.0418,1.0425,1.044,1.0458,1.0473,1.049,1.0496,1.0509,1.0515,1.0534,1.0528,1.0554,1.0544,1.0553,1.056,1.0561,1.0563,1.0556,1.0567,1.0589,1.0591,1.0565,1.0564,1.0564,0,1.0362,1.0392,1.0414,1.0422,1.0445,1.0455,1.0465,1.0481,1.0492,1.0508,1.0515,1.0534,1.0544,1.0558,1.0568,1.0563,1.0592,1.0587,1.0597,1.0597,1.0603,1.0602,1.0626,1.061,1.061,1.061,1.061,0,1.0384,1.0402,1.0418,1.0431,1.0451,1.0461,1.0481,1.0491,1.0505,1.0519,1.0525,1.0539,1.0552,1.0567,1.0575,1.0594,1.0599,1.0604,1.0606,1.0603,1.0602,1.0609,1.0607,1.061,1.061,1.061,1.061,0,1.0398,1.041,1.0433,1.0453,1.0458,1.0471,1.0488,1.05,1.051,1.0528,1.0533,1.0548,1.0566,1.0577,1.06,1.0605,1.0626,1.0628,1.0621,1.0621,1.063,1.0629,1.0658,1.0662,1.0644,1.0644,1.0644,0,1.0411,1.0425,1.0445,1.0456,1.0465,1.0482,1.0493,1.0504,1.0515,1.0535,1.0544,1.0563,1.0578,1.0606,1.0619,1.0636,1.0638,1.0647,1.064,1.0637,1.0637,1.0635,1.0636,1.0648,1.0648,1.0648,1.0648,0,1.0432,1.0437,1.0453,1.0471,1.0484,1.0499,1.0513,1.0521,1.0534,1.0547,1.0565,1.0576,1.0599,1.0617,1.0635,1.0645,1.0648,1.065,1.0653,1.065,1.0645,1.0647,1.0623,1.0649,1.0649,1.0649,1.0649,1.0649,1.0446,1.0458,1.0474,1.0491,1.0503,1.0516,1.0529,1.0539,1.0555,1.0574,1.0579,1.0598,1.0613,1.0638,1.0648,1.0663,1.0661,1.0666,1.0667,1.0668,1.0667,1.0643,1.0666,1.0666,1.0666,1.0666,1.0666,0,1.0466,1.0477,1.0493,1.0513,1.0526,1.0528,1.0544,1.0555,1.0571,1.0585,1.06,1.062,1.0637,1.0651,1.0668,1.0677,1.0679,1.0681,1.068,1.0682,1.0668,1.0663,1.0679,1.0679,1.0679,1.0679,1.0679,1.0679,1.0479,1.0499,1.0505,1.0531,1.0541,1.056,1.0569,1.058,1.0591,1.0614,1.0628,1.0637,1.065,1.0668,1.0684,1.0687,1.0693,1.0694,1.0698,1.0685,1.0683,1.0682,1.0677,1.0696,1.0696,1.0711,1.0711,1.0711]},{"header":{"parameterUnit":"m.s-1","parameterCategory":1,"la1":30.2991,"la2":30.254,"lo1":-89.0895,"lo2":-89.0444,"dy":0.0017,"dx":0.0017,"nx":28,"ny":28,"refTime":"2025-05-21T03:00:00:Z","depth":0,"parameterNumber":3,"parameterNumberName":"V-component_of_WINDS"},"data":[0,0,0,0,0,0,0,0,0,0,0,0,0,0,0,0,0,0,0,0,0,0,0,0,0,0,0,0,0,0,0,0,0,0,0,0,0,0,0,0,0,0,0,0,0,0,0,0,0,0,0,0,0,0,0,0,0,0,5.1893,5.1892,0,5.1822,5.1821,5.182,5.1766,5.1765,5.1765,5.1765,5.1685,5.1684,5.1682,0,0,0,0,0,0,0,0,0,0,0,0,0,5.1978,5.1977,5.1893,5.1892,5.1891,5.1822,5.1821,5.182,5.1766,5.1765,5.1765,5.1764,5.1686,5.1684,5.1682,0,0,0,0,0,0,0,0,0,0,0,0,0,5.1927,5.1976,5.1893,5.1856,5.1852,5.1822,5.1821,5.182,5.1766,5.1765,5.1765,5.1764,5.1686,5.1684,5.1682,5.168,0,0,5.1674,5.1673,0,0,0,0,0,0,0,0,5.193,5.1924,5.1863,5.1859,5.1854,5.1802,5.1822,5.1773,5.1766,5.1799,5.1765,5.1764,5.1724,5.1719,5.1707,5.1677,5.1673,5.1674,5.1672,5.1671,5.167,0,0,0,0,0,0,0,5.1934,5.1927,5.1865,5.1862,5.1857,5.1842,5.1834,5.1812,5.1766,5.1796,5.1792,5.1784,5.1722,5.1709,5.1704,5.1672,5.1674,5.1672,5.167,5.1669,5.1637,5.1638,0,0,0,0,0,0,5.1944,5.193,5.1867,5.1863,5.1891,5.1841,5.1832,5.1819,5.1766,5.1758,5.1785,5.1782,5.1714,5.1707,5.1701,5.1696,5.1671,5.1669,5.1667,5.1636,5.1637,5.1638,0,0,0,0,0,0,5.1946,5.1939,5.187,5.1895,5.1885,5.184,5.1827,5.1818,5.1806,5.1758,5.1749,5.1781,5.1713,5.1705,5.1686,5.1693,5.1668,5.1665,5.1636,5.1637,5.1638,5.1686,0,0,0,0,0,0,5.1949,5.194,5.194,5.1896,5.1884,5.1858,5.1827,5.1818,5.1802,5.1798,5.1752,5.1744,5.1712,5.169,5.1684,5.1689,5.1663,5.1635,5.1636,5.1637,5.1684,5.1688,5.1693,0,0,0,0,0,5.1952,5.1955,5.194,5.1933,5.1884,5.1858,5.1852,5.1817,5.1803,5.1802,5.1772,5.1745,5.1693,5.1689,5.1681,5.1685,5.1634,5.1636,5.1637,5.1682,5.1688,5.1693,0,0,0,0,0,0,5.1999,5.1949,5.1932,5.1921,5.1895,5.1849,5.1847,5.1824,5.1799,5.1796,5.1752,5.1742,5.1728,5.1705,5.1701,5.1681,5.166,5.166,5.1697,5.1702,5.1707,5.1712,5.1661,0,0,0,0,0,5.2009,5.1994,5.195,5.1945,5.1933,5.1893,5.188,5.1856,5.1826,5.1813,5.1781,5.1752,5.1729,5.1714,5.169,5.168,5.1669,5.1679,5.1684,5.1688,5.1688,5.168,5.1684,5.1643,5.1643,5.1643,0,0,5.2028,5.1998,5.1991,5.1954,5.193,5.1914,5.1883,5.1867,5.1855,5.181,5.1791,5.1767,5.1731,5.1717,5.1709,5.1697,5.1697,5.169,5.1693,5.1691,5.1682,5.1686,5.169,5.1644,5.1643,5.1643,0,0,5.2054,5.2031,5.2024,5.2002,5.1968,5.1941,5.194,5.1898,5.1881,5.1862,5.1828,5.1811,5.1773,5.1748,5.1731,5.1749,5.1723,5.1742,5.1766,5.1759,5.1762,5.1765,5.177,5.1773,5.1743,5.1743,5.1743,0,5.2081,5.2057,5.2023,5.201,5.1994,5.1956,5.1948,5.1927,5.1886,5.1875,5.1863,5.1814,5.1787,5.1766,5.1771,5.1759,5.1754,5.1747,5.1765,5.1767,5.1769,5.1774,5.1776,5.1745,5.1745,5.1745,5.1745,0,5.2092,5.2076,5.2075,5.2039,5.2022,5.2012,5.1974,5.1962,5.1939,5.1914,5.1894,5.1861,5.1829,5.1823,5.18,5.1799,5.1793,5.1774,5.1751,5.1776,5.178,5.1781,5.1749,5.1748,5.1747,5.1747,0,0,5.2144,5.2091,5.2091,5.2074,5.2034,5.202,5.2007,5.1979,5.1969,5.1942,5.1929,5.1898,5.1881,5.1861,5.1835,5.1829,5.1845,5.181,5.1809,5.1817,5.1841,5.1855,5.1858,5.1828,5.1829,5.1829,5.1844,0,5.2163,5.2141,5.211,5.2097,5.2081,5.2045,5.2034,5.2007,5.1983,5.1965,5.1937,5.1916,5.1895,5.1882,5.1875,5.1845,5.1849,5.1843,5.1814,5.1813,5.1824,5.186,5.1875,5.1891,5.1845,5.1845,5.1846,0,5.2182,5.216,5.2146,5.2108,5.21,5.2091,5.2063,5.2046,5.2015,5.1998,5.1977,5.1949,5.1932,5.1914,5.1889,5.1886,5.1872,5.1856,5.1855,5.185,5.183,5.1855,5.1895,5.1897,5.1848,5.1848,5.1847,0,5.2221,5.2187,5.2174,5.2161,5.2117,5.2111,5.2092,5.206,5.2045,5.202,5.201,5.1982,5.1967,5.1945,5.191,5.19,5.1889,5.1867,5.1873,5.1873,5.1871,5.1871,5.1908,5.1864,5.1864,5.1864,5.1864,0,5.2245,5.2237,5.2191,5.2183,5.2174,5.2138,5.2129,5.2106,5.2078,5.2064,5.2031,5.2018,5.1973,5.1954,5.1927,5.191,5.1903,5.1888,5.188,5.189,5.1892,5.188,5.1877,5.1864,5.1864,5.1864,5.1864,0,5.2286,5.2255,5.2238,5.2199,5.2188,5.2183,5.2148,5.2138,5.2113,5.2095,5.2089,5.2048,5.2024,5.1988,5.1953,5.1934,5.1922,5.191,5.1933,5.1928,5.1935,5.1935,5.1965,5.1966,5.1922,5.1923,5.1923,0,5.2302,5.2296,5.2256,5.2246,5.2228,5.2211,5.2196,5.2161,5.2147,5.2111,5.2105,5.208,5.2057,5.2021,5.1987,5.196,5.1946,5.1959,5.1942,5.1952,5.1945,5.1946,5.1945,5.1962,5.1963,5.1963,5.1964,0,5.2335,5.232,5.2302,5.2278,5.2262,5.2241,5.2218,5.221,5.2169,5.2155,5.2132,5.2114,5.208,5.2054,5.2023,5.2,5.1975,5.197,5.1969,5.1979,5.1992,5.1984,5.1943,5.1969,5.1968,5.1968,5.1968,5.1968,5.2363,5.2356,5.2328,5.2308,5.2287,5.2267,5.2256,5.2231,5.2211,5.2182,5.2162,5.2139,5.2108,5.2064,5.2043,5.2024,5.2013,5.2012,5.2012,5.2012,5.2016,5.1997,5.2018,5.2018,5.2018,5.2017,5.2017,0,5.2393,5.2374,5.2356,5.2326,5.2311,5.2291,5.2265,5.2252,5.2234,5.2208,5.2188,5.2161,5.2136,5.2101,5.2073,5.2065,5.2052,5.2058,5.2058,5.2053,5.2027,5.203,5.2069,5.2069,5.2069,5.2069,5.2069,5.2069,5.2407,5.2394,5.2377,5.2353,5.2333,5.2313,5.2299,5.228,5.2259,5.2232,5.2212,5.219,5.216,5.213,5.2106,5.2097,5.2087,5.2097,5.2084,5.206,5.2055,5.205,5.2053,5.2096,5.2096,5.2111,5.2111,5.2111]}]]